START_TIME,STEP,MOV.,P11,t_acc.,P23,t_acc.,P27,t_acc.,A4,t_acc.
1981-08-31 00:00:23.590 ,5,0,0.,4.8,0.,4.8,0.,4.8,0.,4.8
1981-08-31 00:00:28.390 ,5,0,0.,4.8,0.,4.8,0.,4.8,0.,4.8
1981-08-31 00:00:33.190 ,5,0,1.,4.8,0.,4.8,0.,4.8,0.,4.8
1981-08-31 00:00:37.990 ,5,0,0.,4.8,0.,4.8,0.,4.8,0.,4.8
1981-08-31 00:00:42.790 ,5,0,1.,4.8,0.,4.8,0.,4.8,0.,4.8
1981-08-31 00:00:47.590 ,4,0,0.,4.8,0.,4.8,0.,4.8,0.,4.8
1981-08-31 00:00:52.390 ,4,0,0.,4.8,0.,4.8,0.,4.8,0.,4.8
1981-08-31 00:00:57.190 ,4,0,2.,4.8,0.,4.8,0.,4.8,0.,4.8
1981-08-31 00:01:01.990 ,4,0,1.,4.8,0.,4.8,0.,4.8,0.,4.8
1981-08-31 00:01:06.790 ,4,0,0.,4.8,0.,4.8,1.,4.8,0.,4.8
1981-08-31 00:01:11.590 ,4,0,0.,4.8,0.,4.8,0.,4.8,0.,4.8
1981-08-31 00:01:16.390 ,4,0,1.,4.8,0.,4.8,0.,4.8,0.,4.8
1981-08-31 00:01:21.190 ,4,0,2.,4.8,0.,4.8,0.,4.8,0.,4.8
1981-08-31 00:01:25.990 ,4,0,0.,4.8,0.,4.8,1.,4.8,0.,4.8
1981-08-31 00:01:30.790 ,4,0,0.,4.8,0.,4.8,0.,4.8,0.,4.8
1981-08-31 00:01:35.590 ,3,0,1.,4.8,0.,4.8,0.,4.8,0.,4.8
1981-08-31 00:01:40.390 ,3,0,0.,4.8,0.,4.8,1.,4.8,0.,4.8
1981-08-31 00:01:45.190 ,3,0,0.,4.8,0.,4.8,0.,4.8,0.,4.8
1981-08-31 00:01:49.990 ,3,0,0.,4.8,0.,4.8,0.,4.8,0.,4.8
1981-08-31 00:01:54.790 ,3,0,0.,4.8,0.,4.8,0.,4.8,0.,4.8
1981-08-31 00:01:59.590 ,2,0,0.,4.8,0.,4.8,0.,4.8,0.,4.8
1981-08-31 00:02:04.390 ,2,0,0.,4.8,0.,4.8,0.,4.8,0.,4.8
1981-08-31 00:02:09.190 ,2,0,0.,4.8,0.,4.8,0.,4.8,0.,4.8
1981-08-31 00:02:13.990 ,2,0,1.,4.8,0.,4.8,0.,4.8,0.,4.8
1981-08-31 00:02:18.790 ,2,0,0.,4.8,0.,4.8,0.,4.8,0.,4.8
1981-08-31 00:02:23.590 ,1,0,1.,4.8,0.,4.8,0.,4.8,0.,4.8
1981-08-31 00:02:28.390 ,1,0,1.,4.8,0.,4.8,0.,4.8,0.,4.8
1981-08-31 00:02:33.190 ,1,0,0.,4.8,0.,4.8,0.,4.8,0.,4.8
1981-08-31 00:02:37.990 ,1,0,0.,4.8,0.,4.8,0.,4.8,0.,4.8
1981-08-31 00:02:42.790 ,1,0,1.,4.8,0.,4.8,0.,4.8,0.,4.8
1981-08-31 00:02:47.590 ,0,0,1.,4.8,0.,4.8,0.,4.8,1.,4.8
1981-08-31 00:02:52.390 ,0,0,0.,4.8,0.,4.8,0.,4.8,0.,4.8
1981-08-31 00:02:57.190 ,0,0,1.,4.8,0.,4.8,0.,4.8,0.,4.8
1981-08-31 00:03:01.990 ,0,0,1.,4.8,0.,4.8,0.,4.8,0.,4.8
1981-08-31 00:03:06.790 ,0,0,1.,4.8,0.,4.8,0.,4.8,0.,4.8
1981-08-31 00:03:11.590 ,0,0,0.,4.8,0.,4.8,0.,4.8,0.,4.8
1981-08-31 00:03:16.390 ,0,0,0.,4.8,0.,4.8,0.,4.8,0.,4.8
1981-08-31 00:03:21.190 ,0,0,0.,4.8,0.,4.8,0.,4.8,0.,4.8
1981-08-31 00:03:25.990 ,0,0,2.,4.8,0.,4.8,0.,4.8,0.,4.8
1981-08-31 00:03:30.790 ,0,0,0.,4.8,0.,4.8,0.,4.8,0.,4.8
1981-08-31 00:03:35.590 ,1,0,0.,4.8,0.,4.8,0.,4.8,0.,4.8
1981-08-31 00:03:40.390 ,1,0,1.,4.8,0.,4.8,0.,4.8,0.,4.8
1981-08-31 00:03:45.190 ,1,0,0.,4.8,0.,4.8,0.,4.8,0.,4.8
1981-08-31 00:03:49.990 ,1,0,0.,4.8,0.,4.8,0.,4.8,0.,4.8
1981-08-31 00:03:54.790 ,1,0,1.,4.8,0.,4.8,0.,4.8,0.,4.8
1981-08-31 00:03:59.590 ,2,0,0.,4.8,0.,4.8,0.,4.8,0.,4.8
1981-08-31 00:04:04.390 ,2,0,0.,4.8,0.,4.8,0.,4.8,0.,4.8
1981-08-31 00:04:09.190 ,2,0,0.,4.8,0.,4.8,0.,4.8,0.,4.8
1981-08-31 00:04:13.990 ,2,0,0.,4.8,0.,4.8,0.,4.8,0.,4.8
1981-08-31 00:04:18.790 ,2,0,0.,4.8,0.,4.8,0.,4.8,0.,4.8
1981-08-31 00:04:23.590 ,3,0,0.,4.8,0.,4.8,0.,4.8,0.,4.8
1981-08-31 00:04:28.390 ,3,0,0.,4.8,0.,4.8,0.,4.8,0.,4.8
1981-08-31 00:04:33.190 ,3,0,0.,4.8,0.,4.8,0.,4.8,0.,4.8
1981-08-31 00:04:37.990 ,3,0,2.,4.8,0.,4.8,0.,4.8,0.,4.8
1981-08-31 00:04:42.790 ,3,0,0.,4.8,0.,4.8,0.,4.8,0.,4.8
1981-08-31 00:04:47.590 ,4,0,1.,4.8,0.,4.8,0.,4.8,0.,4.8
1981-08-31 00:04:52.390 ,4,0,0.,4.8,0.,4.8,0.,4.8,0.,4.8
1981-08-31 00:04:57.190 ,4,0,0.,4.8,0.,4.8,0.,4.8,0.,4.8
1981-08-31 00:05:01.990 ,4,0,0.,4.8,0.,4.8,0.,4.8,0.,4.8
1981-08-31 00:05:06.790 ,4,0,0.,4.8,0.,4.8,0.,4.8,0.,4.8
1981-08-31 00:05:11.590 ,5,0,0.,4.8,0.,4.8,0.,4.8,0.,4.8
1981-08-31 00:05:16.390 ,5,0,1.,4.8,0.,4.8,0.,4.8,0.,4.8
1981-08-31 00:05:21.190 ,5,0,0.,4.8,0.,4.8,0.,4.8,0.,4.8
1981-08-31 00:05:25.990 ,5,0,1.,4.8,0.,4.8,0.,4.8,0.,4.8
1981-08-31 00:05:30.790 ,5,0,0.,4.8,1.,4.8,0.,4.8,0.,4.8
1981-08-31 00:05:35.590 ,6,0,0.,4.8,0.,4.8,0.,4.8,0.,4.8
1981-08-31 00:05:40.390 ,6,0,1.,4.8,0.,4.8,0.,4.8,0.,4.8
1981-08-31 00:05:45.190 ,6,0,0.,4.8,0.,4.8,0.,4.8,0.,4.8
1981-08-31 00:05:49.990 ,6,0,1.,4.8,0.,4.8,0.,4.8,0.,4.8
1981-08-31 00:05:54.790 ,6,0,0.,4.8,0.,4.8,0.,4.8,0.,4.8
1981-08-31 00:05:59.590 ,7,0,1.,4.8,1.,4.8,0.,4.8,0.,4.8
1981-08-31 00:06:04.390 ,7,0,0.,4.8,0.,4.8,0.,4.8,0.,4.8
1981-08-31 00:06:09.190 ,7,0,0.,4.8,0.,4.8,0.,4.8,0.,4.8
1981-08-31 00:06:13.990 ,7,0,1.,4.8,0.,4.8,0.,4.8,0.,4.8
1981-08-31 00:06:18.790 ,7,0,1.,4.8,0.,4.8,0.,4.8,0.,4.8
1981-08-31 00:06:23.590 ,7,0,0.,4.8,0.,4.8,1.,4.8,0.,4.8
1981-08-31 00:06:28.390 ,7,0,0.,4.8,0.,4.8,0.,4.8,0.,4.8
1981-08-31 00:06:33.190 ,7,0,0.,4.8,0.,4.8,0.,4.8,0.,4.8
1981-08-31 00:06:37.990 ,7,0,0.,4.8,0.,4.8,0.,4.8,0.,4.8
1981-08-31 00:06:42.790 ,7,0,1.,4.8,0.,4.8,0.,4.8,0.,4.8
1981-08-31 00:06:47.590 ,6,0,0.,4.8,0.,4.8,1.,4.8,0.,4.8
1981-08-31 00:06:52.390 ,6,0,0.,4.8,1.,4.8,0.,4.8,0.,4.8
1981-08-31 00:06:57.190 ,6,0,0.,4.8,0.,4.8,0.,4.8,0.,4.8
1981-08-31 00:07:01.990 ,6,0,0.,4.8,0.,4.8,0.,4.8,0.,4.8
1981-08-31 00:07:06.790 ,6,0,1.,4.8,0.,4.8,0.,4.8,0.,4.8
1981-08-31 00:07:11.590 ,5,0,0.,4.8,0.,4.8,0.,4.8,0.,4.8
1981-08-31 00:07:16.390 ,5,0,0.,4.8,0.,4.8,0.,4.8,0.,4.8
1981-08-31 00:07:21.190 ,5,0,0.,4.8,0.,4.8,0.,4.8,0.,4.8
1981-08-31 00:07:25.990 ,5,0,0.,4.8,0.,4.8,1.,4.8,0.,4.8
1981-08-31 00:07:30.790 ,5,0,1.,4.8,0.,4.8,0.,4.8,0.,4.8
1981-08-31 00:07:35.590 ,4,0,0.,4.8,0.,4.8,0.,4.8,0.,4.8
1981-08-31 00:07:40.390 ,4,0,0.,4.8,0.,4.8,0.,4.8,0.,4.8
1981-08-31 00:07:45.190 ,4,0,0.,4.8,0.,4.8,1.,4.8,0.,4.8
1981-08-31 00:07:49.990 ,4,0,0.,4.8,0.,4.8,0.,4.8,0.,4.8
1981-08-31 00:07:54.790 ,4,0,0.,4.8,0.,4.8,0.,4.8,0.,4.8
1981-08-31 00:07:59.590 ,3,0,0.,4.8,0.,4.8,0.,4.8,0.,4.8
1981-08-31 00:08:04.390 ,3,0,0.,4.8,0.,4.8,1.,4.8,0.,4.8
1981-08-31 00:08:09.190 ,3,0,2.,4.8,0.,4.8,1.,4.8,0.,4.8
1981-08-31 00:08:13.990 ,3,0,0.,4.8,0.,4.8,0.,4.8,0.,4.8
1981-08-31 00:08:18.790 ,3,0,0.,4.8,0.,4.8,0.,4.8,0.,4.8
1981-08-31 00:08:23.590 ,3,0,0.,4.8,0.,4.8,0.,4.8,0.,4.8
1981-08-31 00:08:28.390 ,3,0,1.,4.8,1.,4.8,0.,4.8,0.,4.8
1981-08-31 00:08:33.190 ,3,0,2.,4.8,0.,4.8,0.,4.8,0.,4.8
1981-08-31 00:08:37.990 ,3,0,0.,4.8,0.,4.8,0.,4.8,0.,4.8
1981-08-31 00:08:42.790 ,3,0,0.,4.8,0.,4.8,0.,4.8,0.,4.8
1981-08-31 00:08:47.590 ,2,0,1.,4.8,0.,4.8,0.,4.8,0.,4.8
1981-08-31 00:08:52.390 ,2,0,0.,4.8,0.,4.8,0.,4.8,0.,4.8
1981-08-31 00:08:57.190 ,2,0,0.,4.8,0.,4.8,0.,4.8,0.,4.8
1981-08-31 00:09:01.990 ,2,0,0.,4.8,0.,4.8,0.,4.8,0.,4.8
1981-08-31 00:09:06.790 ,2,0,1.,4.8,0.,4.8,0.,4.8,0.,4.8
1981-08-31 00:09:11.590 ,2,0,0.,4.8,0.,4.8,0.,4.8,0.,4.8
1981-08-31 00:09:16.390 ,2,0,0.,4.8,0.,4.8,0.,4.8,0.,4.8
1981-08-31 00:09:21.190 ,2,0,0.,4.8,0.,4.8,0.,4.8,0.,4.8
1981-08-31 00:09:25.990 ,2,0,0.,4.8,0.,4.8,0.,4.8,0.,4.8
1981-08-31 00:09:30.790 ,2,0,0.,4.8,0.,4.8,0.,4.8,0.,4.8
1981-08-31 00:09:35.590 ,1,0,0.,4.8,0.,4.8,0.,4.8,0.,4.8
1981-08-31 00:09:40.390 ,1,0,0.,4.8,0.,4.8,0.,4.8,0.,4.8
1981-08-31 00:09:45.190 ,1,0,1.,4.8,0.,4.8,1.,4.8,0.,4.8
1981-08-31 00:09:49.990 ,1,0,2.,4.8,0.,4.8,0.,4.8,0.,4.8
1981-08-31 00:09:54.790 ,1,0,0.,4.8,0.,4.8,0.,4.8,0.,4.8
1981-08-31 00:09:59.590 ,1,0,1.,4.8,0.,4.8,0.,4.8,0.,4.8
1981-08-31 00:10:04.390 ,1,0,1.,4.8,0.,4.8,0.,4.8,0.,4.8
1981-08-31 00:10:09.190 ,1,0,0.,4.8,0.,4.8,0.,4.8,0.,4.8
1981-08-31 00:10:13.990 ,1,0,0.,4.8,0.,4.8,0.,4.8,0.,4.8
1981-08-31 00:10:18.790 ,1,0,0.,4.8,0.,4.8,0.,4.8,0.,4.8
1981-08-31 00:10:23.590 ,0,0,0.,4.8,0.,4.8,0.,4.8,0.,4.8
1981-08-31 00:10:28.390 ,0,0,0.,4.8,0.,4.8,0.,4.8,0.,4.8
1981-08-31 00:10:33.190 ,0,0,0.,4.8,0.,4.8,0.,4.8,0.,4.8
1981-08-31 00:10:37.990 ,0,0,0.,4.8,0.,4.8,0.,4.8,0.,4.8
1981-08-31 00:10:42.790 ,0,0,0.,4.8,0.,4.8,0.,4.8,0.,4.8
1981-08-31 00:10:47.590 ,0,0,0.,4.8,0.,4.8,0.,4.8,0.,4.8
1981-08-31 00:10:52.390 ,0,0,0.,4.8,0.,4.8,0.,4.8,0.,4.8
1981-08-31 00:10:57.190 ,0,0,1.,4.8,0.,4.8,0.,4.8,0.,4.8
1981-08-31 00:11:01.990 ,0,0,0.,4.8,0.,4.8,0.,4.8,0.,4.8
1981-08-31 00:11:06.790 ,0,0,0.,4.8,0.,4.8,1.,4.8,0.,4.8
1981-08-31 00:11:11.590 ,0,0,1.,4.8,0.,4.8,0.,4.8,0.,4.8
1981-08-31 00:11:16.390 ,0,0,0.,4.8,0.,4.8,0.,4.8,0.,4.8
1981-08-31 00:11:21.190 ,0,0,0.,4.8,0.,4.8,0.,4.8,0.,4.8
1981-08-31 00:11:25.990 ,0,0,2.,4.8,0.,4.8,1.,4.8,0.,4.8
1981-08-31 00:11:30.790 ,0,0,1.,4.8,0.,4.8,0.,4.8,0.,4.8
1981-08-31 00:11:35.590 ,0,0,1.,4.8,0.,4.8,0.,4.8,0.,4.8
1981-08-31 00:11:40.390 ,0,0,0.,4.8,0.,4.8,0.,4.8,0.,4.8
1981-08-31 00:11:45.190 ,0,0,0.,4.8,0.,4.8,0.,4.8,0.,4.8
1981-08-31 00:11:49.990 ,0,0,0.,4.8,0.,4.8,0.,4.8,0.,4.8
1981-08-31 00:11:54.790 ,0,0,0.,4.8,0.,4.8,0.,4.8,0.,4.8
1981-08-31 00:11:59.590 ,1,0,0.,4.8,0.,4.8,0.,4.8,0.,4.8
1981-08-31 00:12:04.390 ,1,0,0.,4.8,0.,4.8,0.,4.8,0.,4.8
1981-08-31 00:12:09.190 ,1,0,0.,4.8,0.,4.8,0.,4.8,0.,4.8
1981-08-31 00:12:13.990 ,1,0,0.,4.8,0.,4.8,0.,4.8,0.,4.8
1981-08-31 00:12:18.790 ,1,0,0.,4.8,0.,4.8,1.,4.8,0.,4.8
1981-08-31 00:12:23.590 ,1,0,0.,4.8,0.,4.8,0.,4.8,0.,4.8
1981-08-31 00:12:28.390 ,1,0,0.,4.8,1.,4.8,0.,4.8,0.,4.8
1981-08-31 00:12:33.190 ,1,0,0.,4.8,0.,4.8,1.,4.8,0.,4.8
1981-08-31 00:12:37.990 ,1,0,0.,4.8,0.,4.8,0.,4.8,0.,4.8
1981-08-31 00:12:42.790 ,1,0,0.,4.8,0.,4.8,0.,4.8,0.,4.8
1981-08-31 00:12:47.590 ,2,0,0.,4.8,0.,4.8,0.,4.8,0.,4.8
1981-08-31 00:12:52.390 ,2,0,1.,4.8,0.,4.8,0.,4.8,0.,4.8
1981-08-31 00:12:57.190 ,2,0,0.,4.8,0.,4.8,0.,4.8,0.,4.8
1981-08-31 00:13:01.990 ,2,0,0.,4.8,0.,4.8,0.,4.8,0.,4.8
1981-08-31 00:13:06.790 ,2,0,0.,4.8,0.,4.8,0.,4.8,0.,4.8
1981-08-31 00:13:11.590 ,2,0,0.,4.8,0.,4.8,1.,4.8,0.,4.8
1981-08-31 00:13:16.390 ,2,0,0.,4.8,0.,4.8,1.,4.8,0.,4.8
1981-08-31 00:13:21.190 ,2,0,0.,4.8,0.,4.8,0.,4.8,0.,4.8
1981-08-31 00:13:25.990 ,2,0,0.,4.8,0.,4.8,0.,4.8,0.,4.8
1981-08-31 00:13:30.790 ,2,0,0.,4.8,0.,4.8,0.,4.8,0.,4.8
1981-08-31 00:13:35.590 ,3,0,0.,4.8,0.,4.8,0.,4.8,0.,4.8
1981-08-31 00:13:40.390 ,3,0,1.,4.8,0.,4.8,1.,4.8,0.,4.8
1981-08-31 00:13:45.190 ,3,0,1.,4.8,0.,4.8,0.,4.8,0.,4.8
1981-08-31 00:13:49.990 ,3,0,0.,4.8,0.,4.8,1.,4.8,0.,4.8
1981-08-31 00:13:54.790 ,3,0,0.,4.8,0.,4.8,0.,4.8,0.,4.8
1981-08-31 00:13:59.590 ,3,0,0.,4.8,0.,4.8,0.,4.8,0.,4.8
1981-08-31 00:14:04.390 ,3,0,1.,4.8,0.,4.8,0.,4.8,0.,4.8
1981-08-31 00:14:09.190 ,3,0,1.,4.8,0.,4.8,0.,4.8,0.,4.8
1981-08-31 00:14:13.990 ,3,0,1.,4.8,0.,4.8,0.,4.8,0.,4.8
1981-08-31 00:14:18.790 ,3,0,0.,4.8,0.,4.8,0.,4.8,0.,4.8
1981-08-31 00:14:23.590 ,4,0,1.,4.8,0.,4.8,0.,4.8,0.,4.8
1981-08-31 00:14:28.390 ,4,0,1.,4.8,0.,4.8,0.,4.8,0.,4.8
1981-08-31 00:14:33.190 ,4,0,0.,4.8,0.,4.8,0.,4.8,0.,4.8
1981-08-31 00:14:37.990 ,4,0,0.,4.8,0.,4.8,0.,4.8,0.,4.8
1981-08-31 00:14:42.790 ,4,0,0.,4.8,0.,4.8,0.,4.8,0.,4.8
1981-08-31 00:14:47.590 ,4,0,0.,4.8,0.,4.8,0.,4.8,0.,4.8
1981-08-31 00:14:52.390 ,4,0,0.,4.8,0.,4.8,0.,4.8,0.,4.8
1981-08-31 00:14:57.190 ,4,0,0.,4.8,0.,4.8,0.,4.8,0.,4.8
1981-08-31 00:15:01.990 ,4,0,1.,4.8,0.,4.8,0.,4.8,0.,4.8
1981-08-31 00:15:06.790 ,4,0,0.,4.8,1.,4.8,0.,4.8,0.,4.8
1981-08-31 00:18:23.590 ,0,0,0.,4.8,0.,4.8,0.,4.8,0.,4.8
1981-08-31 00:18:28.390 ,0,0,1.,4.8,0.,4.8,0.,4.8,0.,4.8
1981-08-31 00:18:33.190 ,0,0,0.,4.8,0.,4.8,0.,4.8,0.,4.8
1981-08-31 00:18:37.990 ,0,0,0.,4.8,0.,4.8,0.,4.8,0.,4.8
1981-08-31 00:18:42.790 ,0,0,0.,4.8,0.,4.8,0.,4.8,0.,4.8
1981-08-31 00:18:47.590 ,0,0,0.,4.8,0.,4.8,0.,4.8,0.,4.8
1981-08-31 00:18:52.390 ,0,0,0.,4.8,0.,4.8,0.,4.8,0.,4.8
1981-08-31 00:18:57.190 ,0,0,0.,4.8,0.,4.8,0.,4.8,0.,4.8
1981-08-31 00:19:01.990 ,0,0,1.,4.8,0.,4.8,0.,4.8,0.,4.8
1981-08-31 00:19:06.790 ,0,0,1.,4.8,0.,4.8,0.,4.8,0.,4.8
1981-08-31 00:19:11.590 ,5,0,0.,4.8,0.,4.8,0.,4.8,0.,4.8
1981-08-31 00:19:16.390 ,5,0,0.,4.8,0.,4.8,0.,4.8,0.,4.8
1981-08-31 00:19:21.190 ,5,0,0.,4.8,0.,4.8,0.,4.8,0.,4.8
1981-08-31 00:19:25.990 ,5,0,0.,4.8,0.,4.8,0.,4.8,0.,4.8
1981-08-31 00:19:30.790 ,5,0,0.,4.8,0.,4.8,0.,4.8,0.,4.8
1981-08-31 00:19:35.590 ,5,0,0.,4.8,0.,4.8,0.,4.8,0.,4.8
1981-08-31 00:19:40.390 ,5,0,1.,4.8,0.,4.8,0.,4.8,0.,4.8
1981-08-31 00:19:45.190 ,5,0,0.,4.8,0.,4.8,0.,4.8,0.,4.8
1981-08-31 00:19:49.990 ,5,0,0.,4.8,0.,4.8,0.,4.8,0.,4.8
1981-08-31 00:19:54.790 ,5,0,0.,4.8,0.,4.8,0.,4.8,0.,4.8
1981-08-31 00:19:59.590 ,4,0,0.,4.8,0.,4.8,0.,4.8,0.,4.8
1981-08-31 00:20:04.390 ,4,0,0.,4.8,0.,4.8,0.,4.8,0.,4.8
1981-08-31 00:20:09.190 ,4,0,0.,4.8,0.,4.8,0.,4.8,0.,4.8
1981-08-31 00:20:13.990 ,4,0,0.,4.8,0.,4.8,0.,4.8,0.,4.8
1981-08-31 00:20:18.790 ,4,0,0.,4.8,0.,4.8,0.,4.8,0.,4.8
1981-08-31 00:20:23.590 ,4,0,1.,4.8,0.,4.8,0.,4.8,0.,4.8
1981-08-31 00:20:28.390 ,4,0,0.,4.8,0.,4.8,0.,4.8,0.,4.8
1981-08-31 00:20:33.190 ,4,0,0.,4.8,0.,4.8,0.,4.8,0.,4.8
1981-08-31 00:20:37.990 ,4,0,0.,4.8,0.,4.8,0.,4.8,0.,4.8
1981-08-31 00:20:42.790 ,4,0,2.,4.8,0.,4.8,0.,4.8,0.,4.8
1981-08-31 00:20:47.590 ,3,0,0.,4.8,0.,4.8,0.,4.8,0.,4.8
1981-08-31 00:20:52.390 ,3,0,0.,4.8,0.,4.8,0.,4.8,0.,4.8
1981-08-31 00:20:57.190 ,3,0,0.,4.8,0.,4.8,0.,4.8,0.,4.8
1981-08-31 00:21:01.990 ,3,0,0.,4.8,0.,4.8,0.,4.8,0.,4.8
1981-08-31 00:21:06.790 ,3,0,0.,4.8,0.,4.8,0.,4.8,0.,4.8
1981-08-31 00:21:11.590 ,2,0,1.,4.8,0.,4.8,0.,4.8,0.,4.8
1981-08-31 00:21:16.390 ,2,0,0.,4.8,0.,4.8,0.,4.8,0.,4.8
1981-08-31 00:21:21.190 ,2,0,0.,4.8,0.,4.8,0.,4.8,0.,4.8
1981-08-31 00:21:25.990 ,2,0,0.,4.8,0.,4.8,0.,4.8,0.,4.8
1981-08-31 00:21:30.790 ,2,0,1.,4.8,0.,4.8,0.,4.8,0.,4.8
1981-08-31 00:21:35.590 ,1,0,0.,4.8,0.,4.8,0.,4.8,0.,4.8
1981-08-31 00:21:40.390 ,1,0,0.,4.8,0.,4.8,0.,4.8,0.,4.8
1981-08-31 00:21:45.190 ,1,0,2.,4.8,0.,4.8,1.,4.8,0.,4.8
1981-08-31 00:21:49.990 ,1,0,1.,4.8,0.,4.8,0.,4.8,0.,4.8
1981-08-31 00:21:54.790 ,1,0,0.,4.8,0.,4.8,0.,4.8,0.,4.8
1981-08-31 00:21:59.590 ,0,0,0.,4.8,0.,4.8,0.,4.8,0.,4.8
1981-08-31 00:22:04.390 ,0,0,0.,4.8,0.,4.8,0.,4.8,0.,4.8
1981-08-31 00:22:09.190 ,0,0,1.,4.8,0.,4.8,0.,4.8,0.,4.8
1981-08-31 00:22:13.990 ,0,0,1.,4.8,0.,4.8,0.,4.8,0.,4.8
1981-08-31 00:22:18.790 ,0,0,0.,4.8,0.,4.8,0.,4.8,0.,4.8
1981-08-31 00:22:23.590 ,0,0,0.,4.8,0.,4.8,0.,4.8,0.,4.8
1981-08-31 00:22:28.390 ,0,0,0.,4.8,0.,4.8,0.,4.8,0.,4.8
1981-08-31 00:22:33.190 ,0,0,0.,4.8,0.,4.8,0.,4.8,0.,4.8
1981-08-31 00:22:37.990 ,0,0,0.,4.8,0.,4.8,0.,4.8,0.,4.8
1981-08-31 00:22:42.790 ,0,0,0.,4.8,0.,4.8,0.,4.8,0.,4.8
1981-08-31 00:22:47.590 ,1,0,0.,4.8,0.,4.8,0.,4.8,0.,4.8
1981-08-31 00:22:52.390 ,1,0,0.,4.8,0.,4.8,0.,4.8,0.,4.8
1981-08-31 00:22:57.190 ,1,0,0.,4.8,0.,4.8,0.,4.8,0.,4.8
1981-08-31 00:23:01.990 ,1,0,1.,4.8,0.,4.8,0.,4.8,0.,4.8
1981-08-31 00:23:06.790 ,1,0,0.,4.8,0.,4.8,0.,4.8,0.,4.8
1981-08-31 00:23:11.590 ,2,0,0.,4.8,0.,4.8,0.,4.8,0.,4.8
1981-08-31 00:23:16.390 ,2,0,0.,4.8,1.,4.8,0.,4.8,0.,4.8
1981-08-31 00:23:21.190 ,2,0,0.,4.8,0.,4.8,0.,4.8,0.,4.8
1981-08-31 00:23:25.990 ,2,0,0.,4.8,0.,4.8,1.,4.8,0.,4.8
1981-08-31 00:23:30.790 ,2,0,1.,4.8,0.,4.8,0.,4.8,0.,4.8
1981-08-31 00:23:35.590 ,3,0,0.,4.8,0.,4.8,0.,4.8,0.,4.8
1981-08-31 00:23:40.390 ,3,0,0.,4.8,0.,4.8,0.,4.8,0.,4.8
1981-08-31 00:23:45.190 ,3,0,0.,4.8,0.,4.8,1.,4.8,0.,4.8
1981-08-31 00:23:49.990 ,3,0,0.,4.8,0.,4.8,0.,4.8,0.,4.8
1981-08-31 00:23:54.790 ,3,0,0.,4.8,0.,4.8,0.,4.8,0.,4.8
1981-08-31 00:23:59.590 ,4,0,1.,4.8,0.,4.8,0.,4.8,0.,4.8
1981-08-31 00:24:04.390 ,4,0,1.,4.8,0.,4.8,0.,4.8,0.,4.8
1981-08-31 00:24:09.190 ,4,0,0.,4.8,0.,4.8,0.,4.8,0.,4.8
1981-08-31 00:24:13.990 ,4,0,0.,4.8,0.,4.8,0.,4.8,0.,4.8
1981-08-31 00:24:18.790 ,4,0,0.,4.8,0.,4.8,0.,4.8,0.,4.8
1981-08-31 00:24:23.590 ,5,0,0.,4.8,0.,4.8,0.,4.8,0.,4.8
1981-08-31 00:24:28.390 ,5,0,0.,4.8,0.,4.8,1.,4.8,0.,4.8
1981-08-31 00:24:33.190 ,5,0,1.,4.8,0.,4.8,0.,4.8,0.,4.8
1981-08-31 00:24:37.990 ,5,0,0.,4.8,0.,4.8,0.,4.8,0.,4.8
1981-08-31 00:24:42.790 ,5,0,0.,4.8,0.,4.8,0.,4.8,0.,4.8
1981-08-31 00:24:47.590 ,6,0,1.,4.8,0.,4.8,0.,4.8,0.,4.8
1981-08-31 00:24:52.390 ,6,0,2.,4.8,0.,4.8,0.,4.8,0.,4.8
1981-08-31 00:24:57.190 ,6,0,0.,4.8,0.,4.8,0.,4.8,0.,4.8
1981-08-31 00:25:01.990 ,6,0,0.,4.8,0.,4.8,0.,4.8,0.,4.8
1981-08-31 00:25:06.790 ,6,0,0.,4.8,0.,4.8,0.,4.8,0.,4.8
1981-08-31 00:25:11.590 ,7,0,1.,4.8,0.,4.8,0.,4.8,0.,4.8
1981-08-31 00:25:16.390 ,7,0,0.,4.8,0.,4.8,0.,4.8,0.,4.8
1981-08-31 00:25:21.190 ,7,0,0.,4.8,0.,4.8,0.,4.8,0.,4.8
1981-08-31 00:25:25.990 ,7,0,2.,4.8,0.,4.8,1.,4.8,0.,4.8
1981-08-31 00:25:30.790 ,7,0,0.,4.8,0.,4.8,0.,4.8,0.,4.8
1981-08-31 00:25:35.590 ,7,0,0.,4.8,0.,4.8,0.,4.8,0.,4.8
1981-08-31 00:25:40.390 ,7,0,0.,4.8,0.,4.8,0.,4.8,0.,4.8
1981-08-31 00:25:45.190 ,7,0,1.,4.8,0.,4.8,0.,4.8,0.,4.8
1981-08-31 00:25:49.990 ,7,0,0.,4.8,0.,4.8,0.,4.8,0.,4.8
1981-08-31 00:25:54.790 ,7,0,0.,4.8,0.,4.8,0.,4.8,0.,4.8
1981-08-31 00:25:59.590 ,6,0,1.,4.8,0.,4.8,0.,4.8,0.,4.8
1981-08-31 00:26:04.390 ,6,0,0.,4.8,0.,4.8,0.,4.8,0.,4.8
1981-08-31 00:26:09.190 ,6,0,0.,4.8,0.,4.8,1.,4.8,0.,4.8
1981-08-31 00:26:13.990 ,6,0,1.,4.8,0.,4.8,0.,4.8,0.,4.8
1981-08-31 00:26:18.790 ,6,0,0.,4.8,0.,4.8,0.,4.8,0.,4.8
1981-08-31 00:26:23.590 ,5,0,0.,4.8,0.,4.8,0.,4.8,0.,4.8
1981-08-31 00:26:28.390 ,5,0,0.,4.8,0.,4.8,0.,4.8,0.,4.8
1981-08-31 00:26:33.190 ,5,0,1.,4.8,0.,4.8,0.,4.8,0.,4.8
1981-08-31 00:26:37.990 ,5,0,1.,4.8,0.,4.8,0.,4.8,0.,4.8
1981-08-31 00:26:42.790 ,5,0,0.,4.8,0.,4.8,0.,4.8,0.,4.8
1981-08-31 00:26:47.590 ,4,0,0.,4.8,0.,4.8,0.,4.8,0.,4.8
1981-08-31 00:26:52.390 ,4,0,0.,4.8,0.,4.8,0.,4.8,0.,4.8
1981-08-31 00:26:57.190 ,4,0,1.,4.8,0.,4.8,0.,4.8,0.,4.8
1981-08-31 00:27:01.990 ,4,0,0.,4.8,0.,4.8,0.,4.8,0.,4.8
1981-08-31 00:27:06.790 ,4,0,0.,4.8,0.,4.8,0.,4.8,0.,4.8
1981-08-31 00:27:11.590 ,3,0,0.,4.8,0.,4.8,0.,4.8,0.,4.8
1981-08-31 00:27:16.390 ,3,0,0.,4.8,0.,4.8,0.,4.8,0.,4.8
1981-08-31 00:27:21.190 ,3,0,0.,4.8,0.,4.8,1.,4.8,0.,4.8
1981-08-31 00:27:25.990 ,3,0,0.,4.8,0.,4.8,0.,4.8,0.,4.8
1981-08-31 00:27:30.790 ,3,0,1.,4.8,0.,4.8,0.,4.8,0.,4.8
1981-08-31 00:27:35.590 ,3,0,1.,4.8,0.,4.8,0.,4.8,0.,4.8
1981-08-31 00:27:40.390 ,3,0,1.,4.8,0.,4.8,0.,4.8,0.,4.8
1981-08-31 00:27:45.190 ,3,0,0.,4.8,0.,4.8,0.,4.8,0.,4.8
1981-08-31 00:27:49.990 ,3,0,0.,4.8,0.,4.8,0.,4.8,0.,4.8
1981-08-31 00:27:54.790 ,3,0,0.,4.8,0.,4.8,0.,4.8,0.,4.8
1981-08-31 00:27:59.590 ,2,0,0.,4.8,0.,4.8,0.,4.8,0.,4.8
1981-08-31 00:28:04.390 ,2,0,1.,4.8,0.,4.8,0.,4.8,0.,4.8
1981-08-31 00:28:09.190 ,2,0,0.,4.8,0.,4.8,0.,4.8,0.,4.8
1981-08-31 00:28:13.990 ,2,0,0.,4.8,0.,4.8,0.,4.8,0.,4.8
1981-08-31 00:28:18.790 ,2,0,1.,4.8,0.,4.8,0.,4.8,0.,4.8
1981-08-31 00:28:23.590 ,2,0,0.,4.8,0.,4.8,0.,4.8,0.,4.8
1981-08-31 00:28:28.390 ,2,0,0.,4.8,0.,4.8,0.,4.8,0.,4.8
1981-08-31 00:28:33.190 ,2,0,1.,4.8,0.,4.8,0.,4.8,0.,4.8
1981-08-31 00:28:37.990 ,2,0,1.,4.8,0.,4.8,0.,4.8,0.,4.8
1981-08-31 00:28:42.790 ,2,0,1.,4.8,0.,4.8,0.,4.8,0.,4.8
1981-08-31 00:29:11.590 ,1,0,1.,4.8,0.,4.8,0.,4.8,0.,4.8
1981-08-31 00:29:16.390 ,1,0,0.,4.8,0.,4.8,0.,4.8,0.,4.8
1981-08-31 00:29:21.190 ,1,0,2.,4.8,0.,4.8,0.,4.8,0.,4.8
1981-08-31 00:29:25.990 ,1,0,1.,4.8,0.,4.8,1.,4.8,0.,4.8
1981-08-31 00:29:30.790 ,1,0,1.,4.8,0.,4.8,0.,4.8,0.,4.8
1981-08-31 00:29:35.590 ,0,0,0.,4.8,0.,4.8,0.,4.8,0.,4.8
1981-08-31 00:29:40.390 ,0,0,0.,4.8,0.,4.8,0.,4.8,0.,4.8
1981-08-31 00:29:45.190 ,0,0,1.,4.8,0.,4.8,0.,4.8,0.,4.8
1981-08-31 00:29:49.990 ,0,0,0.,4.8,0.,4.8,0.,4.8,0.,4.8
1981-08-31 00:29:54.790 ,0,0,0.,4.8,0.,4.8,0.,4.8,0.,4.8
1981-08-31 00:29:59.590 ,0,0,1.,4.8,0.,4.8,0.,4.8,0.,4.8
1981-08-31 00:30:04.390 ,0,0,1.,4.8,1.,4.8,0.,4.8,0.,4.8
1981-08-31 00:30:09.190 ,0,0,0.,4.8,0.,4.8,0.,4.8,0.,4.8
1981-08-31 00:30:13.990 ,0,0,0.,4.8,0.,4.8,0.,4.8,0.,4.8
1981-08-31 00:30:18.790 ,0,0,0.,4.8,0.,4.8,1.,4.8,0.,4.8
1981-08-31 00:30:23.590 ,0,0,0.,4.8,0.,4.8,0.,4.8,0.,4.8
1981-08-31 00:30:28.390 ,0,0,0.,4.8,0.,4.8,0.,4.8,0.,4.8
1981-08-31 00:30:33.190 ,0,0,1.,4.8,0.,4.8,0.,4.8,0.,4.8
1981-08-31 00:30:37.990 ,0,0,0.,4.8,0.,4.8,0.,4.8,0.,4.8
1981-08-31 00:30:42.790 ,0,0,0.,4.8,0.,4.8,0.,4.8,0.,4.8
1981-08-31 00:30:47.590 ,0,0,0.,4.8,0.,4.8,0.,4.8,0.,4.8
1981-08-31 00:30:52.390 ,0,0,0.,4.8,0.,4.8,0.,4.8,0.,4.8
1981-08-31 00:30:57.190 ,0,0,0.,4.8,0.,4.8,0.,4.8,0.,4.8
1981-08-31 00:31:01.990 ,0,0,0.,4.8,0.,4.8,0.,4.8,0.,4.8
1981-08-31 00:31:06.790 ,0,0,0.,4.8,0.,4.8,0.,4.8,0.,4.8
1981-08-31 00:31:11.590 ,1,0,0.,4.8,0.,4.8,0.,4.8,0.,4.8
1981-08-31 00:31:16.390 ,1,0,0.,4.8,0.,4.8,0.,4.8,0.,4.8
1981-08-31 00:31:21.190 ,1,0,0.,4.8,0.,4.8,0.,4.8,0.,4.8
1981-08-31 00:31:25.990 ,1,0,0.,4.8,0.,4.8,0.,4.8,0.,4.8
1981-08-31 00:31:30.790 ,1,0,0.,4.8,0.,4.8,0.,4.8,0.,4.8
1981-08-31 00:31:35.590 ,1,0,0.,4.8,0.,4.8,0.,4.8,0.,4.8
1981-08-31 00:31:40.390 ,1,0,3.,4.8,0.,4.8,0.,4.8,0.,4.8
1981-08-31 00:31:45.190 ,1,0,1.,4.8,0.,4.8,0.,4.8,0.,4.8
1981-08-31 00:31:49.990 ,1,0,0.,4.8,0.,4.8,0.,4.8,0.,4.8
1981-08-31 00:31:54.790 ,1,0,0.,4.8,0.,4.8,0.,4.8,0.,4.8
1981-08-31 00:31:59.590 ,2,0,1.,4.8,0.,4.8,0.,4.8,0.,4.8
1981-08-31 00:32:04.390 ,2,0,0.,4.8,0.,4.8,0.,4.8,0.,4.8
1981-08-31 00:32:09.190 ,2,0,0.,4.8,0.,4.8,0.,4.8,0.,4.8
1981-08-31 00:32:13.990 ,2,0,0.,4.8,0.,4.8,0.,4.8,0.,4.8
1981-08-31 00:32:18.790 ,2,0,0.,4.8,0.,4.8,0.,4.8,0.,4.8
1981-08-31 00:32:23.590 ,2,0,0.,4.8,0.,4.8,1.,4.8,0.,4.8
1981-08-31 00:32:28.390 ,2,0,0.,4.8,0.,4.8,0.,4.8,0.,4.8
1981-08-31 00:32:33.190 ,2,0,1.,4.8,0.,4.8,0.,4.8,0.,4.8
1981-08-31 00:32:37.990 ,2,0,1.,4.8,0.,4.8,0.,4.8,0.,4.8
1981-08-31 00:32:42.790 ,2,0,1.,4.8,0.,4.8,1.,4.8,0.,4.8
1981-08-31 00:32:47.590 ,3,0,0.,4.8,0.,4.8,0.,4.8,0.,4.8
1981-08-31 00:32:52.390 ,3,0,0.,4.8,0.,4.8,0.,4.8,0.,4.8
1981-08-31 00:32:57.190 ,3,0,0.,4.8,0.,4.8,0.,4.8,0.,4.8
1981-08-31 00:33:01.990 ,3,0,0.,4.8,0.,4.8,0.,4.8,0.,4.8
1981-08-31 00:33:06.790 ,3,0,0.,4.8,0.,4.8,0.,4.8,0.,4.8
1981-08-31 00:33:11.590 ,3,0,0.,4.8,0.,4.8,0.,4.8,0.,4.8
1981-08-31 00:33:16.390 ,3,0,0.,4.8,0.,4.8,0.,4.8,0.,4.8
1981-08-31 00:33:21.190 ,3,0,0.,4.8,0.,4.8,0.,4.8,0.,4.8
1981-08-31 00:33:25.990 ,3,0,1.,4.8,0.,4.8,0.,4.8,0.,4.8
1981-08-31 00:33:30.790 ,3,0,0.,4.8,0.,4.8,1.,4.8,0.,4.8
1981-08-31 00:33:35.590 ,4,0,2.,4.8,0.,4.8,0.,4.8,0.,4.8
1981-08-31 00:33:40.390 ,4,0,2.,4.8,1.,4.8,0.,4.8,0.,4.8
1981-08-31 00:33:45.190 ,4,0,0.,4.8,0.,4.8,1.,4.8,0.,4.8
1981-08-31 00:33:49.990 ,4,0,1.,4.8,0.,4.8,0.,4.8,0.,4.8
1981-08-31 00:33:54.790 ,4,0,1.,4.8,0.,4.8,0.,4.8,0.,4.8
1981-08-31 00:33:59.590 ,4,0,0.,4.8,0.,4.8,0.,4.8,0.,4.8
1981-08-31 00:34:04.390 ,4,0,0.,4.8,0.,4.8,0.,4.8,0.,4.8
1981-08-31 00:34:09.190 ,4,0,0.,4.8,0.,4.8,1.,4.8,0.,4.8
1981-08-31 00:34:13.990 ,4,0,0.,4.8,0.,4.8,0.,4.8,0.,4.8
1981-08-31 00:34:18.790 ,4,0,0.,4.8,0.,4.8,0.,4.8,0.,4.8
1981-08-31 00:34:23.590 ,5,0,0.,4.8,0.,4.8,0.,4.8,0.,4.8
1981-08-31 00:34:28.390 ,5,0,0.,4.8,0.,4.8,0.,4.8,0.,4.8
1981-08-31 00:34:33.190 ,5,0,0.,4.8,0.,4.8,0.,4.8,0.,4.8
1981-08-31 00:34:37.990 ,5,0,0.,4.8,0.,4.8,0.,4.8,0.,4.8
1981-08-31 00:34:42.790 ,5,0,0.,4.8,0.,4.8,0.,4.8,0.,4.8
1981-08-31 00:34:47.590 ,5,0,0.,4.8,0.,4.8,0.,4.8,0.,4.8
1981-08-31 00:34:52.390 ,5,0,0.,4.8,0.,4.8,0.,4.8,0.,4.8
1981-08-31 00:34:57.190 ,5,0,1.,4.8,0.,4.8,0.,4.8,0.,4.8
1981-08-31 00:35:01.990 ,5,0,0.,4.8,0.,4.8,0.,4.8,0.,4.8
1981-08-31 00:35:06.790 ,5,0,1.,4.8,0.,4.8,0.,4.8,0.,4.8
1981-08-31 00:35:11.590 ,6,0,0.,4.8,0.,4.8,0.,4.8,0.,4.8
1981-08-31 00:35:16.390 ,6,0,0.,4.8,0.,4.8,0.,4.8,0.,4.8
1981-08-31 00:35:21.190 ,6,0,1.,4.8,1.,4.8,0.,4.8,0.,4.8
1981-08-31 00:35:25.990 ,6,0,1.,4.8,0.,4.8,0.,4.8,0.,4.8
1981-08-31 00:35:30.790 ,6,0,0.,4.8,0.,4.8,0.,4.8,0.,4.8
1981-08-31 00:35:35.590 ,6,0,0.,4.8,0.,4.8,0.,4.8,0.,4.8
1981-08-31 00:35:40.390 ,6,0,0.,4.8,0.,4.8,0.,4.8,0.,4.8
1981-08-31 00:35:45.190 ,6,0,0.,4.8,0.,4.8,0.,4.8,0.,4.8
1981-08-31 00:35:49.990 ,6,0,0.,4.8,0.,4.8,0.,4.8,0.,4.8
1981-08-31 00:35:54.790 ,6,0,0.,4.8,0.,4.8,0.,4.8,0.,4.8
1981-08-31 00:35:59.590 ,7,0,1.,4.8,0.,4.8,0.,4.8,0.,4.8
1981-08-31 00:36:04.390 ,7,0,0.,4.8,0.,4.8,0.,4.8,0.,4.8
1981-08-31 00:36:09.190 ,7,0,1.,4.8,0.,4.8,0.,4.8,0.,4.8
1981-08-31 00:36:13.990 ,7,0,0.,4.8,0.,4.8,0.,4.8,0.,4.8
1981-08-31 00:36:18.790 ,7,0,0.,4.8,0.,4.8,0.,4.8,0.,4.8
1981-08-31 00:36:23.590 ,7,0,2.,4.8,0.,4.8,0.,4.8,0.,4.8
1981-08-31 00:36:28.390 ,7,0,1.,4.8,0.,4.8,0.,4.8,0.,4.8
1981-08-31 00:36:33.190 ,7,0,0.,4.8,0.,4.8,0.,4.8,0.,4.8
1981-08-31 00:36:37.990 ,7,0,0.,4.8,1.,4.8,0.,4.8,0.,4.8
1981-08-31 00:36:42.790 ,7,0,0.,4.8,0.,4.8,0.,4.8,0.,4.8
1981-08-31 00:36:47.590 ,7,0,0.,4.8,0.,4.8,0.,4.8,0.,4.8
1981-08-31 00:36:52.390 ,7,0,0.,4.8,0.,4.8,0.,4.8,0.,4.8